Station WNEM4 - 9076027 - West Neebish Island, MI Image indicating link to RSS feed of recent meteorological observations for station WNEM4


Conditions at WNEM4 as of
(9:30 pm EDT on 05/27/2024)
0130 GMT on 05/28/2024:
     

Click on the graph icon in the table below to see a time series plot of the last five days of that observation.

5-day plot - Wind Direction Wind Direction (WDIR):WNW ( 300 deg true )
5-day plot - Wind Speed Wind Speed (WSPD): 12.0 kts
5-day plot - Wind Gust Wind Gust (GST): 17.1 kts
5-day plot - Atmospheric Pressure Atmospheric Pressure (PRES):29.63 in
5-day plot - Air Temperature Air Temperature (ATMP): 51.6 °F
5-day plot - Water Temperature Water Temperature (WTMP): 47.8 °F
5-day plot - Dew Point Dew Point (DEWP): 48.2 °F
5-day plot - Wind Chill Wind Chill (CHILL): 46.9 °F
5-day plot - Wind Speed at 10 Meters Wind Speed at 10 meters (WSPD10M): 11.7 kts
5-day plot - Wind Speed at 20 Meters Wind Speed at 20 meters (WSPD20M): 11.7 kts
5-day plot -  Wind Speed, Wind Gust and Atmospheric Pressure Combined plot of Wind Speed, Gust, and Air Pressure
NOS Water Level Observation Network Water Level
Previous observations
TIME
(EDT)
5-day plot - Wind Direction
WDIR
 
5-day plot - Wind Speed
WSPD
kts
5-day plot - Wind Gust
GST
kts
5-day plot - Wave Height
WVHT
ft
5-day plot - Dominant Wave Period
DPD
sec
5-day plot - Average Wave Period
APD
sec
5-day plot - Mean Wave Direction
MWD
 
5-day plot - Atmospheric Pressure
PRES
in
5-day plot - Pressure Tendency
PTDY
in
5-day plot - Air Temperature
ATMP
°F
5-day plot - Water Temperature
WTMP
°F
5-day plot - Dew Point
DEWP
°F
5-day plot - Salinity
SAL
psu
5-day plot - Visibility
VIS
nmi
5-day plot - Tide (above MLLW)
TIDE
ft
2024-05-27 09:24 pmWNW 14.0 17.1----29.62- 51.8 47.8 48.2---
2024-05-27 09:18 pmWNW 15.0 19.0----29.62- 52.0 47.8 48.4---
2024-05-27 09:12 pmWNW 15.0 20.0----29.62- 52.2 47.8 48.4---
2024-05-27 09:06 pmWNW 15.0 19.0----29.62- 52.3 47.8 48.4---
2024-05-27 09:00 pmWNW 15.0 19.0----29.61- 52.5 47.8 48.4---
2024-05-27 08:54 pmWNW 15.9 19.0----29.61- 52.9 47.8 48.4---
2024-05-27 08:48 pmWNW 18.1 24.1----29.61- 53.1 47.8 48.4---
2024-05-27 08:42 pm NW 20.0 26.0----29.61- 53.6 47.8 48.6---
2024-05-27 08:36 pmWNW 18.1 22.9----29.61- 53.8 47.8 48.7---
2024-05-27 08:30 pm NW 18.1 25.1----29.60- 54.1 48.0 48.7---
2024-05-27 08:24 pm NW 18.1 24.1----29.60- 54.5 47.8 48.9---
2024-05-27 08:18 pm NW 15.9 20.0----29.60- 54.5 47.8 49.1---
2024-05-27 08:12 pmWNW 17.1 24.1----29.59- 54.5 47.8 48.9---
2024-05-27 08:06 pm NW 15.0 19.0----29.59- 54.7 47.8 48.9---
2024-05-27 08:00 pmWNW 15.9 22.9----29.59+0.06 55.0 47.8 49.1---
2024-05-27 07:54 pm NW 19.0 22.9----29.59- 55.2 47.8 49.1---
2024-05-27 07:48 pmWNW 18.1 22.0----29.58-- 47.8----
2024-05-27 07:42 pmWNW 15.9 24.1----29.58-- 47.8----
2024-05-27 07:36 pmWNW 15.9 22.0----29.58-- 47.8----
2024-05-27 07:30 pmWNW 18.1 22.9----29.58- 55.6 47.8 49.3---
2024-05-27 07:24 pm NW 18.1 22.9----29.57- 55.9 47.8 49.5---
2024-05-27 07:18 pmWNW 19.0 25.1----29.57- 56.1 47.8 49.5---
2024-05-27 07:12 pmWNW 19.0 24.1----29.57- 56.3 47.8 49.6---
2024-05-27 07:06 pmWNW 18.1 22.0----29.57- 56.7 47.8 49.8---
2024-05-27 07:00 pmWNW 17.1 21.0----29.56+0.04 56.7 47.8 49.8---
2024-05-27 06:54 pmWNW 15.9 20.0----29.56- 56.7 47.8 49.8---
2024-05-27 06:48 pmWNW 18.1 26.0----29.56- 57.0 47.8 49.8---
2024-05-27 06:42 pmWNW 18.1 22.0----29.56- 57.2 47.8 49.8---
2024-05-27 06:36 pmWNW 18.1 25.1----29.56- 57.2 47.8 49.6---
2024-05-27 06:30 pmWNW 18.1 24.1----29.55- 57.9 47.8 50.0---
2024-05-27 06:24 pmWNW 15.0 21.0----29.55- 59.4 47.8 50.9---
2024-05-27 06:18 pmWNW 12.0 17.1----29.55- 59.9 47.8 51.4---
2024-05-27 06:12 pmWNW 13.0 15.9----29.54- 60.1 47.8 51.6---
2024-05-27 06:06 pmWNW 11.1 14.0----29.54- 59.7 47.8 51.6---
2024-05-27 06:00 pm--------- 59.9 47.8 51.8---
2024-05-27 05:54 pm--------- 59.7 47.8 51.6---
2024-05-27 05:48 pmWNW 11.1 13.0----29.53- 60.1 47.8 51.8---
2024-05-27 05:42 pm W 8.0 13.0----29.53- 60.1 47.8 52.2---
2024-05-27 05:36 pm W 11.1 13.0----29.53- 60.1 47.8 52.2---
2024-05-27 05:30 pm W 8.9 13.0----29.53-- 47.8----
2024-05-27 05:24 pmWNW 9.9 13.0----29.53-- 47.8----
2024-05-27 05:18 pmWNW 11.1 15.0----29.53- 59.5 47.8 52.0---
2024-05-27 05:12 pmWNW 9.9 13.0----29.53- 59.4 47.8 52.0---
2024-05-27 05:06 pmWNW 11.1 14.0----29.52- 60.1 47.8 52.2---
2024-05-27 05:00 pmWNW 9.9 13.0----29.52+0.00 60.1 47.8 52.3---
2024-05-27 04:54 pmWNW 11.1 13.0----29.52- 60.4 47.8 52.7---
2024-05-27 04:48 pmWNW 8.9 12.0----29.52- 60.4 47.8 52.9---
2024-05-27 04:42 pm W 11.1 13.0----29.52- 60.8 47.8 53.2---
2024-05-27 04:36 pmWNW 11.1 13.0----29.52- 60.8 47.8 53.4---
2024-05-27 04:30 pm-------29.52- 60.8 47.8 53.8---
2024-05-27 04:24 pm-------29.52- 60.4 47.8 53.8---
2024-05-27 04:18 pm W 5.1 8.0----29.52- 60.1 47.8 54.0---
2024-05-27 04:12 pm W 6.0 9.9----29.52- 60.3 47.8 54.0---
2024-05-27 04:06 pm W 7.0 14.0----29.52- 59.7 47.8 53.1---
2024-05-27 04:00 pmWNW 8.9 13.0----29.52+0.00 60.4 47.8 53.6---
2024-05-27 03:54 pm W 11.1 13.0----29.52- 61.0 47.8 54.1---
2024-05-27 03:48 pm W 7.0 13.0------ 60.4 47.8 54.1---
2024-05-27 03:42 pmWNW 9.9 12.0------ 60.8 47.8 54.5---
2024-05-27 03:36 pmWNW 8.0 12.0------ 60.4 47.8 54.9---
2024-05-27 03:30 pm W 8.9 12.0----29.52- 61.0 47.8 55.2---
2024-05-27 03:24 pm W 8.9 12.0----29.52- 61.2 47.8 55.8---
2024-05-27 03:18 pm W 7.0 9.9----29.52- 61.2 47.8 56.3---
2024-05-27 03:12 pm W 7.0 8.9----29.52- 60.8 47.8 56.3---
2024-05-27 03:06 pm W 5.1 8.9----29.52- 61.3 47.8 57.0---
2024-05-27 03:00 pm W 7.0 9.9----29.52+0.02 61.0 47.8 56.7---
2024-05-27 02:54 pm W 6.0 8.9----29.52- 61.2 47.8 57.0---
2024-05-27 02:48 pm W 8.0 11.1----29.52- 60.6 47.8 56.5---
2024-05-27 02:42 pm W 8.0 8.9----29.52- 60.4 47.8 56.3---
2024-05-27 02:36 pmWNW 7.0 8.9----29.52- 60.1 47.8 55.9---
2024-05-27 02:30 pmWNW 7.0 9.9----29.52- 60.1 47.8 55.8---
2024-05-27 02:24 pmWNW 8.0 9.9----29.52- 61.0 47.8 56.3---
2024-05-27 02:18 pm NW 5.1 6.0----29.52- 60.1 47.8 55.9---
2024-05-27 02:12 pmWNW 2.9 4.1----29.52- 60.1 47.8 56.3---
2024-05-27 02:06 pmWNW 2.9 4.1----29.52- 59.7 47.8 55.9---
2024-05-27 02:00 pmWNW 1.9 2.9----29.52+0.03 59.5 47.8 55.9---
2024-05-27 01:54 pmWNW 1.9 4.1----29.53- 59.0 47.8 55.6---
2024-05-27 01:48 pmWNW 2.9 4.1----29.53-- 47.8----
2024-05-27 01:42 pmWNW 2.9 2.9----29.53-- 47.8----
2024-05-27 01:36 pm NW 1.9 1.9----29.53-- 47.8----
2024-05-27 01:30 pm NW 1.9 2.9----29.53- 56.7 47.8 52.7---
2024-05-27 01:24 pmNNW 2.9 4.1----29.53- 57.6 47.8 53.2---
2024-05-27 01:18 pmNNW 2.9 6.0----29.53- 58.1 47.7 53.4---
2024-05-27 01:12 pmNNW 6.0 7.0----29.53- 58.3 47.8 52.9---
2024-05-27 01:06 pmNNW 5.1 6.0----29.53- 57.9 47.8 53.1---
2024-05-27 01:00 pmNNW 4.1 6.0----29.52+0.03 55.9 47.8 51.4---
2024-05-27 12:54 pmNNW 4.1 6.0----29.52- 57.0 47.8 52.9---
2024-05-27 12:48 pmNNW 4.1 6.0----29.52- 56.1 47.8 52.2---
2024-05-27 12:42 pmNNW 4.1 7.0----29.52- 55.2 47.8 51.4---
2024-05-27 12:36 pmNNW 5.1 6.0----29.51- 56.7 47.8 52.7---
2024-05-27 12:30 pmNNW 4.1 5.1----29.51- 56.3 47.8 52.7---
2024-05-27 12:24 pmNNW 4.1 5.1----29.51- 56.7 47.8 53.1---
2024-05-27 12:18 pmNNW 2.9 5.1----29.51- 57.6 47.8 53.8---
2024-05-27 12:12 pm N 2.9 8.9----29.51- 58.5 47.7 54.3---
2024-05-27 12:06 pm N 6.0 11.1----29.50- 59.9 47.7 54.7---
2024-05-27 12:00 pm N 7.0 11.1----29.50+0.00 60.1 47.7 54.1---
2024-05-27 11:54 am N 6.0 8.9----29.50- 59.7 47.7 54.3---
2024-05-27 11:48 am N 5.1 7.0----29.50- 59.4 47.7 54.0---
2024-05-27 11:42 am N 4.1 6.0----29.50- 59.5 47.7 54.0---
2024-05-27 11:36 am N 4.1 6.0----29.50- 59.4 47.7 53.2---
2024-05-27 11:30 am N 2.9 5.1----29.50- 59.7 47.7 53.4---
2024-05-27 11:24 am N 4.1 7.0----29.50- 60.1 47.7 53.6---
2024-05-27 11:18 am N 4.1 5.1----29.50- 59.9 47.7 53.6---
2024-05-27 11:12 am N 4.1 6.0----29.49- 59.9 47.7 53.8---
2024-05-27 11:06 am N 4.1 5.1----29.49- 59.0 47.7 53.2---
2024-05-27 11:00 am N 4.1 5.1----29.49-0.01 59.4 47.7 53.4---
2024-05-27 10:54 am N 2.9 5.1----29.49- 58.1 47.7 52.3---
2024-05-27 10:48 am N 2.9 5.1----29.49-- 47.7----
2024-05-27 10:42 am N 2.9 5.1----29.49-- 47.7----
2024-05-27 10:36 am N 2.9 4.1----29.49-- 47.7----
2024-05-27 10:30 am N 2.9 5.1----29.49- 59.9 47.7 53.1---
2024-05-27 10:24 am N 4.1 5.1----29.49- 60.1 47.7 52.9---
2024-05-27 10:18 am N 4.1 5.1----29.49- 60.3 47.7 52.7---
2024-05-27 10:12 amNNE 2.9 4.1----29.49- 60.1 47.7 52.7---
2024-05-27 10:06 amNNE 2.9 5.1----29.49- 59.4 47.7 52.0---
2024-05-27 10:00 am N 1.9 2.9----29.49-0.02 59.5 47.7 51.8---
2024-05-27 09:54 am N 2.9 5.1----29.49- 60.4 47.7 52.3---
2024-05-27 09:48 amNNE 4.1 6.0----29.49- 60.6 47.7 52.2---
2024-05-27 09:42 amNNE 2.9 7.0----29.49- 60.8 47.7 52.3---
2024-05-27 09:36 amNNE 4.1 7.0----29.49- 60.6 47.7 51.8---
2024-05-27 09:30 amNNE 5.1 8.9----29.49- 60.8 47.7 51.8---
2024-05-27 09:24 amNNE 6.0 8.9----29.49- 61.0 47.7 51.6---
2024-05-27 09:18 amNNE 4.1 9.9----29.49- 61.0 47.7 51.6---
2024-05-27 09:12 amNNE 5.1 8.0----29.49- 61.3 47.7 51.4---
2024-05-27 09:06 am NE 7.0 9.9----29.49- 61.3 47.7 51.4---
2024-05-27 09:00 am NE 5.1 8.9----29.49-0.04 61.3 47.7 51.6---
2024-05-27 08:54 am NE 5.1 8.9----29.49- 61.3 47.7 51.6---
2024-05-27 08:48 amNNE 6.0 8.9----29.49- 61.3 47.7 51.4---
2024-05-27 08:42 amNNE 5.1 8.0----29.49- 61.2 47.7 51.4---
2024-05-27 08:36 amNNE 5.1 8.0----29.50- 61.0 47.7 51.4---
2024-05-27 08:30 amNNE 5.1 11.1----29.50- 61.0 47.7 51.3---
2024-05-27 08:24 amNNE 8.0 11.1----29.50- 61.0 47.7 51.3---
2024-05-27 08:18 amNNE 6.0 8.0----29.50- 60.8 47.7 51.3---
2024-05-27 08:12 amNNE 7.0 9.9----29.50- 60.8 47.7 51.3---
2024-05-27 08:06 amNNE 6.0 8.0----29.50- 60.6 47.7 51.3---
2024-05-27 08:00 am NE 5.1 8.0----29.51-0.04 60.4 47.7 51.3---
2024-05-27 07:54 am NE 5.1 8.9----29.51- 60.6 47.7 51.4---
2024-05-27 07:48 amNNE 5.1 8.9----29.51- 60.4 47.7 51.1---
2024-05-27 07:42 amNNE 5.1 8.0----29.51- 60.4 47.7 51.1---
2024-05-27 07:36 amNNE 5.1 8.9----29.51- 60.6 47.7 50.9---
2024-05-27 07:30 am NE 4.1 7.0----29.51- 60.6 47.7 50.7---
2024-05-27 07:24 amENE 4.1 7.0----29.51- 60.6 47.7 50.7---
2024-05-27 07:18 am NE 4.1 8.9----29.51- 60.8 47.7 50.5---
2024-05-27 07:12 am NE 4.1 8.0----29.51- 60.6 47.8 50.2---
2024-05-27 07:06 amNNE 5.1 8.9----29.52- 60.8 47.8 50.2---
2024-05-27 07:00 amNNE 5.1 7.0----29.52-0.05 60.6 47.8 50.5---
2024-05-27 06:54 amNNE 1.9 5.1----29.52- 57.7 47.7 49.5---
2024-05-27 06:48 am N 1.0 4.1----29.52- 57.2 47.8 48.9---
2024-05-27 06:42 am N 1.0 4.1----29.52- 57.6 47.8 49.1---
2024-05-27 06:36 am N 2.9 5.1----29.52- 57.2 47.8 48.7---
2024-05-27 06:30 am N 2.9 5.1----29.52- 57.0 47.8 48.6---
2024-05-27 06:24 amNNW 1.9 2.9----29.53- 56.5 47.8 48.2---
2024-05-27 06:18 amNNW 1.9 2.9----29.53- 57.2 47.8 48.6---
2024-05-27 06:12 amNNW 1.9 2.9----29.53- 56.8 47.8 48.2---
2024-05-27 06:06 amNNW 1.0 2.9----29.53- 56.7 47.8 47.8---
2024-05-27 06:00 am N 1.0 1.9----29.53-0.06 58.3 47.8 48.0---
2024-05-27 05:54 amNNE 1.0 5.1----29.53- 60.6 47.8 48.7---
2024-05-27 05:48 am NE 4.1 8.0----29.53- 61.5 47.8 48.7---
2024-05-27 05:42 am NE 4.1 6.0----29.53- 61.3 47.8 48.7---
2024-05-27 05:36 am NE 2.9 6.0----29.54- 61.2 47.8 48.9---
2024-05-27 05:30 am NE 2.9 5.1----29.54- 61.3 47.8 48.7---
2024-05-27 05:24 am NE 1.9 5.1----29.54- 61.3 47.8 48.4---
2024-05-27 05:18 am NE 1.9 4.1----29.54- 61.5 47.8 48.0---
2024-05-27 05:12 amNNE 1.9 4.1----29.54- 61.7 47.8 48.0---
2024-05-27 05:06 am NE 1.9 4.1----29.54- 61.7 47.8 47.7---
2024-05-27 05:00 amENE 2.9 4.1----29.54-0.06 62.1 47.8 47.5---
2024-05-27 04:54 amENE 2.9 5.1----29.54- 62.1 47.8 47.3---
2024-05-27 04:48 amENE 2.9 6.0----29.54- 62.1 47.8 47.1---
2024-05-27 04:42 amENE 2.9 7.0----29.54- 62.1 47.8 47.1---
2024-05-27 04:36 amENE 4.1 7.0----29.55- 62.1 47.8 46.9---
2024-05-27 04:30 amENE 4.1 7.0----29.55- 62.2 47.8 46.8---
2024-05-27 04:24 amENE 4.1 6.0----29.55- 62.4 47.8 46.8---
2024-05-27 04:18 amENE 5.1 8.0----29.56- 62.4 47.8 46.6---
2024-05-27 04:12 amENE 4.1 7.0----29.56- 62.8 47.8 46.6---
2024-05-27 04:06 amENE 2.9 8.0----29.56- 62.8 47.8 46.4---
2024-05-27 04:00 amENE 5.1 8.9----29.57-0.07 62.8 47.8----
2024-05-27 03:54 amENE 4.1 7.0----29.57- 62.8 47.8----
2024-05-27 03:48 am NE 1.9 8.9----29.57- 62.4 47.8 46.4---
2024-05-27 03:42 amENE 2.9 8.0----29.58- 62.6 47.8 46.6---
2024-05-27 03:36 amENE 2.9 5.1----29.58- 62.2 47.8 46.6---
2024-05-27 03:30 am NE 2.9 6.0----29.58- 62.4 47.8 46.6---
2024-05-27 03:24 am NE 1.9 7.0----29.59- 62.4 47.8 46.8---
2024-05-27 03:18 amENE 2.9 7.0----29.59- 62.4 47.8 46.8---
2024-05-27 03:12 amENE 5.1 7.0----29.59- 62.6 47.8 46.8---
2024-05-27 03:06 amENE 2.9 5.1----29.59- 62.4 47.8 46.8---
2024-05-27 03:00 amENE 2.9 6.0----29.59-0.07 62.6 47.8 46.9---
2024-05-27 02:54 amENE 4.1 7.0----29.59- 63.0 47.8 46.8---
2024-05-27 02:48 amENE 2.9 8.0----29.59- 63.0 47.8 46.8---
2024-05-27 02:42 amENE 5.1 8.0----29.60- 63.1 47.8 46.8---
2024-05-27 02:36 amENE 5.1 8.0----29.60- 63.3 47.8 46.9---
2024-05-27 02:30 amENE 4.1 7.0----29.61- 63.1 47.8 46.9---
2024-05-27 02:24 amENE 4.1 8.0----29.61- 63.1 47.8 47.3---
2024-05-27 02:18 amENE 2.9 8.0----29.61- 63.0 47.8 47.5---
2024-05-27 02:12 amENE 5.1 7.0----29.61- 63.1 47.8 47.5---
2024-05-27 02:06 amENE 5.1 8.0----29.61- 63.3 47.8 47.7---
2024-05-27 02:00 amENE 4.1 7.0----29.61-0.07 63.3 47.8 47.7---
2024-05-27 01:54 am E 5.1 9.9----29.62- 63.3 47.8 47.7---
2024-05-27 01:48 amENE 4.1 8.0----29.62- 63.3 47.8 47.8---
2024-05-27 01:42 amENE 5.1 8.0----29.62- 63.3 47.8 47.8---
2024-05-27 01:36 amENE 5.1 8.0----29.62- 63.1 47.8 47.8---
2024-05-27 01:30 amENE 2.9 7.0----29.63- 63.1 47.8 48.0---
2024-05-27 01:24 amENE 2.9 7.0----29.63- 63.1 47.8 48.0---
2024-05-27 01:18 amENE 4.1 8.9----29.63- 63.1 47.8 48.2---
2024-05-27 01:12 amENE 2.9 6.0----29.63- 62.8 47.8 48.2---
2024-05-27 01:06 amENE 5.1 8.9----29.64- 62.8 47.8 48.4---
2024-05-27 01:00 amENE 4.1 6.0----29.64-0.05 62.2 47.8 48.4---
2024-05-27 12:54 am NE 2.9 6.0----29.64- 61.7 47.8 48.6---
2024-05-27 12:48 amNNE 2.9 5.1----29.65- 61.5 47.8 48.6---
2024-05-27 12:42 am NE 1.9 4.1----29.65- 61.2 47.8 48.2---
2024-05-27 12:36 amNNE 1.9 4.1----29.65- 61.3 47.8 48.2---
2024-05-27 12:30 amNNE 1.9 6.0----29.65- 61.2 47.8 48.0---
2024-05-27 12:24 amNNE 2.9 4.1----29.65- 61.7 47.8 47.8---
2024-05-27 12:18 am NE 1.9 5.1----29.66- 61.9 47.8 47.7---
2024-05-27 12:12 amENE 4.1 7.0----29.66- 62.1 47.8 47.5---
2024-05-27 12:06 amENE 2.9 7.0----29.66- 62.1 47.8 47.3---
2024-05-27 12:00 am NE 2.9 5.1----29.66-0.07 62.1 47.8 47.1---
2024-05-26 11:54 pm NE 4.1 6.0----29.67- 62.2 47.8 46.9---
2024-05-26 11:48 pm-------29.67-- 47.8----
2024-05-26 11:42 pm-------29.67-- 47.8----
2024-05-26 11:36 pm-------29.67-- 47.8----
2024-05-26 11:30 pmENE 2.9 8.0----29.67- 61.9 47.8 46.9---
2024-05-26 11:24 pmENE 6.0 8.0----29.67- 61.9 47.8 46.8---
2024-05-26 11:18 pmENE 4.1 7.0----29.68- 61.7 47.8 46.9---
2024-05-26 11:12 pmENE 4.1 7.0----29.68- 61.5 47.8 46.8---
2024-05-26 11:06 pmENE 5.1 7.0----29.68- 61.5 47.8 46.9---
2024-05-26 11:00 pm E 4.1 6.0----29.68-0.09 61.3 47.8 46.9---
2024-05-26 10:54 pmENE 2.9 6.0----29.69- 61.5 47.8 47.1---
2024-05-26 10:48 pmENE 4.1 7.0----29.69- 61.5 47.7 47.3---
2024-05-26 10:42 pmENE 4.1 7.0----29.69- 61.5 47.8 48.0---
2024-05-26 10:36 pmENE 4.1 7.0----29.69- 61.5 47.7 48.2---
2024-05-26 10:30 pm---------- 47.8----
2024-05-26 10:24 pm---------- 47.7----
2024-05-26 10:18 pm NE 5.1 8.9----29.69-------
2024-05-26 10:12 pmENE 6.0 8.9----29.69-------
2024-05-26 10:06 pmENE 6.0 8.9----29.69-------
2024-05-26 10:00 pm NE 5.1 8.0----29.69-0.09- 47.7----
2024-05-26 09:54 pmENE 5.1 11.1----29.69-- 47.7----